Stations météo

réclame
Mon MeteoGroup
Landivisiau, France (7106): Température de l'air & dewpoint: 19.09.2018 09:00:00 - 25.09.2018 09:00:00 (CEST)Landivisiau, France (7106): Température de l'air 5cm: 19.09.2018 09:00:00 - 25.09.2018 09:00:00 (CEST)Landivisiau, France (7106): Température de l'air -20cm: 19.09.2018 09:00:00 - 25.09.2018 09:00:00 (CEST)Landivisiau, France (7106): Vitesse du vent & gusts: 19.09.2018 09:00:00 - 25.09.2018 09:00:00 (CEST)Landivisiau, France (7106): Direction du vent: 19.09.2018 09:00:00 - 25.09.2018 09:00:00 (CEST)Landivisiau, France (7106): reduced air pressure: 19.09.2018 09:00:00 - 25.09.2018 09:00:00 (CEST)Landivisiau, France (7106): visibility: 19.09.2018 09:00:00 - 25.09.2018 09:00:00 (CEST)Landivisiau, France (7106): Quantités de précipitations: 19.09.2018 09:00:00 - 25.09.2018 09:00:00 (CEST)
Date & Time tt [°C] td [°C] tt 5cm [°C] tt -20cm [°C] ff [km/h] ff [knt] fx [km/h] fx [knt] dd ppp [hPa] vv [km] rr [mm]
25.09.2018 09:00:00 8,7 5,3 6,1 13,3 9 5 13 7 ESE 1037,1 36 0,0
25.09.2018 08:00:00 7,4 5,2 5,5 13,4 8 4 16 9 ESE 1036,7 45 0,0
25.09.2018 07:00:00 6,8 5,1 5,1 13,6 15 8 21 11 SE 1036,6 58 0,0
25.09.2018 06:00:00 7,2 5,8 4,2 13,7 14 7 16 9 SE 1036,9 57 0,0
25.09.2018 05:00:00 6,4 5,3 4,1 14,0 5 3 9 5 ESE 1037,1 10 0,0
25.09.2018 04:00:00 7,4 5,9 3,5 14,2 7 4 9 5 ESE 1037,3 39 0,0
25.09.2018 03:00:00 6,6 4,8 3,7 14,4 5 3 15 8 NE 1038,0 35 0,0
25.09.2018 02:00:00 8,2 5,1 6,7 14,5 14 7 16 9 ESE 1037,4 48 0,0
25.09.2018 01:00:00 9,0 5,7 7,8 14,7 11 6 16 9 ENE 1038,1 50 0,0
25.09.2018 00:00:00 9,8 6,0 8,4 14,9 12 7 15 8 E 1037,9 47 0,0
24.09.2018 23:00:00 9,5 6,6 5,9 15,1 7 4 9 5 ENE 1038,0 35 0,0
24.09.2018 22:00:00 8,4 6,4 6,7 15,2 9 5 13 7 ENE 1038,1 55 0,0
24.09.2018 21:00:00 9,5 6,2 7,7 15,3 6 4 18 10 NE 1037,9 55 0,0
24.09.2018 20:00:00 11,7 6,2 11,1 15,4 12 7 31 17 NE 1037,4 60 0,0
24.09.2018 19:00:00 13,4 6,3 13,3 15,3 16 9 37 20 NE 1036,9 39 0,0
24.09.2018 18:00:00 14,5 6,3 16,9 15,2 22 12 35 19 NE 1036,8 42 0,0
24.09.2018 17:00:00 15,1 6,1 18,5 14,9 23 12 37 20 ENE 1037,3 46 0,0
24.09.2018 16:00:00 15,4 6,1 17,0 14,6 19 11 34 18 NE 1037,5 36 0,0
24.09.2018 15:00:00 15,1 6,6 16,1 14,3 20 11 29 16 NE 1037,9 29 0,0
24.09.2018 14:00:00 15,4 6,7 15,3 14,1 18 10 31 17 NE 1038,2 47 0,0
24.09.2018 13:00:00 14,5 6,1 14,3 13,8 18 10 31 17 NE 1038,4 43 0,0
24.09.2018 12:00:00 14,3 5,4 14,1 13,7 16 9 28 15 NE 1038,6 55 0,0
24.09.2018 11:00:00 14,0 6,8 16,3 13,7 9 5 16 9 NNE 1038,6 20 0,0
24.09.2018 10:00:00 11,8 6,7 7,9 13,7 3 1 8 4 NE 1038,0 45 0,0
24.09.2018 09:00:00 7,9 6,2 3,9 13,9 5 3 11 6 NNE 1037,4 46 0,0
24.09.2018 08:00:00 7,2 6,0 3,9 14,1 8 5 15 8 NNE 1036,6 50 0,0
24.09.2018 07:00:00 6,8 5,6 3,5 14,3 9 5 13 7 N 1036,3 45 0,0
24.09.2018 06:00:00 7,2 5,8 4,4 14,5 7 4 15 8 N 1036,2 45 0,0
24.09.2018 05:00:00 7,1 4,9 3,6 14,7 9 5 13 7 N 1035,9 46 0,0
24.09.2018 04:00:00 7,0 4,0 4,2 14,9 8 5 15 8 N 1035,8 54 0,0
24.09.2018 03:00:00 7,5 4,4 5,1 15,1 11 6 16 9 N 1035,3 54 0,0
24.09.2018 02:00:00 8,5 4,3 6,7 15,3 12 7 21 11 NNE 1034,7 52 0,0
24.09.2018 01:00:00 8,9 4,5 7,4 15,5 12 6 22 12 N 1034,3 51 0,0
24.09.2018 00:00:00 9,5 3,9 8,0 15,8 13 7 26 14 N 1033,4 58 0,0
23.09.2018 23:00:00 9,9 3,8 8,4 16,0 13 7 26 14 N 1032,8 48 0,0
23.09.2018 22:00:00 10,2 4,6 8,3 16,2 17 9 26 14 N 1031,8 53 0,0
23.09.2018 21:00:00 10,1 4,9 8,8 16,4 13 7 31 17 N 1030,5 50 0,0
23.09.2018 20:00:00 12,0 6,9 11,7 16,5 22 12 34 18 N 1029,4 48 0,0
23.09.2018 19:00:00 12,5 7,2 12,5 16,6 19 10 41 22 N 1028,1 37 0,0
23.09.2018 18:00:00 13,5 7,3 15,5 16,7 25 14 52 28 NNE 1026,9 32 0,0
23.09.2018 17:00:00 13,4 9,3 13,6 16,7 34 18 52 28 NNE 1025,8 35 0,0
23.09.2018 16:00:00 12,6 10,3 12,8 16,8 29 16 50 27 NNE 1024,7 17 0,0
23.09.2018 15:00:00 13,5 10,7 14,4 16,8 32 18 48 26 NNE 1023,3 28 0,0
23.09.2018 14:00:00 14,1 12,5 14,0 16,8 34 18 55 30 NNE 1021,3 8 0,2
23.09.2018 13:00:00 13,8 13,3 14,0 16,9 26 14 50 27 N 1020,2 4,3 0,2
23.09.2018 12:00:00 13,7 13,4 13,8 16,9 16 9 41 22 NW 1018,3 2,1 0,4
23.09.2018 11:00:00 13,6 12,8 13,8 16,9 28 15 57 31 NNW 1016,9 1,9 0,4
23.09.2018 10:00:00 17,5 17,0 17,2 16,8 29 16 54 29 W 1015,1 12 0,2
23.09.2018 09:00:00 17,5 17,2 17,2 16,8 29 15 46 25 WSW 1014,7 3,1 0,0
23.09.2018 08:00:00 17,5 17,3 17,2 16,8 29 16 44 24 WSW 1014,5 3,9 0,2
23.09.2018 07:00:00 17,4 17,2 17,2 16,8 28 15 42 23 WSW 1014,8 2,6 0,4
23.09.2018 06:00:00 17,4 17,1 17,3 16,8 24 13 42 23 WSW 1015,0 2,5 0,4
23.09.2018 05:00:00 17,9 17,6 17,7 16,7 28 15 46 25 WSW 1015,1 2,8 0,2
23.09.2018 04:00:00 18,0 17,7 17,7 16,6 32 18 52 28 WSW 1015,5 4,3 0,4
23.09.2018 03:00:00 18,0 17,7 17,8 16,6 34 18 50 27 WSW 1015,7 5 0,0
23.09.2018 02:00:00 18,1 17,8 17,9 16,6 31 17 52 28 WSW 1015,9 4,0 0,6
23.09.2018 01:00:00 18,2 18,0 17,9 16,5 33 18 54 29 WSW 1015,9 3,4 0,2
23.09.2018 00:00:00 18,1 17,9 17,7 16,5 33 18 50 27 WSW 1015,6 4,5 0,4
22.09.2018 23:00:00 17,7 17,5 17,6 16,4 32 17 46 25 WSW 1015,6 1,0 0,0
22.09.2018 22:00:00 17,8 17,6 17,7 16,3 34 18 52 28 WSW 1015,3 2,4 0,2
22.09.2018 21:00:00 18,2 17,9 17,8 16,2 37 20 52 28 WSW 1015,0 2,5 0,2
22.09.2018 20:00:00 18,2 17,9 17,9 16,1 37 20 61 33 WSW 1014,7 4,8 0,6
22.09.2018 19:00:00 18,2 18,0 17,9 16,0 35 19 57 31 WSW 1014,3 4,5 0,2
22.09.2018 18:00:00 18,0 17,8 17,9 15,9 37 20 57 31 WSW 1014,1 1,9 0,6
22.09.2018 17:00:00 18,0 17,8 18,0 15,7 38 21 67 36 WSW 1014,1 2,1 0,0
22.09.2018 16:00:00 18,0 17,7 17,8 15,6 44 24 72 39 WSW 1014,1 3,7 0,6
22.09.2018 15:00:00 17,8 17,5 16,1 15,5 37 20 59 32 SW 1014,1 3,1 2,4
22.09.2018 14:00:00 16,1 15,5 14,4 15,4 28 15 61 33 SSW 1014,7 3,4 0,4
22.09.2018 13:00:00 14,4 13,6 13,9 15,3 39 21 61 33 S 1015,4 4,5 0,4
22.09.2018 12:00:00 14,3 13,0 12,9 15,3 39 21 57 31 S 1016,9 6 0,2
22.09.2018 11:00:00 13,3 11,9 11,8 15,3 21 11 31 17 S 1018,6 18 0,0
22.09.2018 10:00:00 12,0 11,1 11,5 15,3 15 8 22 12 SE 1019,4 14 0,2
22.09.2018 09:00:00 12,0 10,4 11,3 15,4 11 6 21 11 S 1020,6 7 0,2
22.09.2018 08:00:00 12,3 9,3 11,8 15,5 16 9 22 12 SSE 1020,6 55 0,0
22.09.2018 07:00:00 12,2 9,6 11,7 15,5 8 4 16 9 S 1021,1 46 0,0
22.09.2018 06:00:00 12,0 9,9 11,5 15,6 12 6 16 9 S 1021,7 46 0,0
22.09.2018 05:00:00 11,8 10,2 11,2 15,7 12 6 16 9 SSW 1022,5 41 0,0
22.09.2018 04:00:00 11,6 9,8 10,9 15,8 8 4 15 8 SSW 1022,8 42 0,0
22.09.2018 03:00:00 11,6 9,7 10,0 15,9 10 5 15 8 S 1022,9 43 0,0
22.09.2018 02:00:00 11,3 9,2 9,9 16,0 11 6 16 9 S 1023,2 48 0,0
22.09.2018 01:00:00 11,3 9,6 9,8 16,1 9 5 15 8 SSW 1023,4 10 0,0
22.09.2018 00:00:00 11,8 9,7 11,0 16,3 10 5 15 8 SSW 1023,5 46 0,0
21.09.2018 23:00:00 12,0 9,7 11,1 16,4 10 5 26 14 SW 1023,4 43 0,0
21.09.2018 22:00:00 11,9 8,6 10,4 16,5 13 7 18 10 SW 1023,3 10 0,0
21.09.2018 21:00:00 12,0 8,1 10,3 16,6 11 6 16 9 SW 1022,4 43 0,0
21.09.2018 20:00:00 13,6 7,6 13,0 16,7 10 6 24 13 WSW 1022,1 46 0,0
21.09.2018 19:00:00 14,5 6,3 14,6 16,7 18 10 39 21 WNW 1021,5 48 0,0
21.09.2018 18:00:00 15,5 7,0 15,7 16,6 21 11 41 22 W 1020,8 20 0,0
21.09.2018 17:00:00 16,3 6,7 16,1 16,6 24 13 42 23 WNW 1020,6 43 0,0
21.09.2018 16:00:00 15,1 6,9 15,9 16,5 24 13 42 23 W 1020,5 10 0,0
21.09.2018 15:00:00 15,0 5,8 15,6 16,4 25 13 44 24 W 1020,0 26 0,0
21.09.2018 14:00:00 15,8 5,1 16,5 16,3 27 15 48 26 W 1019,4 32 0,0
21.09.2018 13:00:00 15,6 6,8 13,3 16,3 28 15 50 27 WNW 1018,6 10 0,0
21.09.2018 12:00:00 15,2 6,7 16,2 16,2 28 15 44 24 W 1017,9 34 0,0
21.09.2018 11:00:00 14,3 7,8 15,6 16,3 19 10 29 16 W 1017,2 37 0,0
21.09.2018 10:00:00 12,7 8,4 11,4 16,5 13 7 21 11 W 1016,4 10 0,0
21.09.2018 09:00:00 11,1 8,3 10,5 16,7 9 5 15 8 W 1015,6 43 0,0
21.09.2018 08:00:00 11,1 8,5 9,8 16,9 8 4 26 14 W 1014,2 37 0,0
21.09.2018 07:00:00 11,0 8,2 10,1 17,1 13 7 31 17 WNW 1013,1 47 0,0
21.09.2018 06:00:00 12,0 9,6 10,7 17,3 21 11 35 19 WNW 1012,1 41 0,0
21.09.2018 05:00:00 12,1 9,1 11,3 17,5 20 11 50 27 WNW 1011,0 19 0,0
21.09.2018 04:00:00 13,3 10,1 12,7 17,7 23 12 44 24 W 1010,2 19 0,0
21.09.2018 03:00:00 14,0 11,3 13,5 17,8 24 13 39 21 W 1009,1 19 0,0
21.09.2018 02:00:00 14,7 12,4 13,8 17,9 29 16 59 32 W 1008,5 18 0,0
21.09.2018 01:00:00 16,9 15,4 16,1 18,0 43 23 93 50 W 1006,3 11 2,8
21.09.2018 00:00:00 17,6 17,0 17,2 18,0 44 24 78 42 SSW 1005,7 2,7 4,6
20.09.2018 23:00:00 17,6 16,8 17,1 18,1 38 21 68 37 SSW 1006,8 3,6 5,5
20.09.2018 22:00:00 18,2 16,4 17,4 18,1 50 27 74 40 SW 1008,1 12 0,0
20.09.2018 21:00:00 18,3 16,3 17,9 18,2 44 24 68 37 SW 1008,8 10 0,0
20.09.2018 20:00:00 18,1 16,4 17,3 18,2 45 24 78 42 SW 1009,6 16 0,2
20.09.2018 19:00:00 18,8 16,4 18,2 18,2 45 25 68 37 SW 1010,0 20 0,0
20.09.2018 18:00:00 19,1 16,5 19,1 18,1 39 21 65 35 SW 1010,7 18 0,0
20.09.2018 17:00:00 19,1 16,7 18,5 18,0 38 21 61 33 SW 1011,9 15 0,0
20.09.2018 16:00:00 19,8 16,2 20,7 17,8 39 21 70 38 SW 1012,7 19 0,0
20.09.2018 15:00:00 20,5 15,3 21,4 17,6 42 23 70 38 SW 1012,9 19 0,0
20.09.2018 14:00:00 19,9 14,9 21,0 17,4 41 22 67 36 SW 1013,6 20 0,0
20.09.2018 13:00:00 19,9 14,9 20,3 17,3 37 20 57 31 SSW 1014,1 20 0,0
20.09.2018 12:00:00 19,2 15,9 19,9 17,3 33 18 54 29 SW 1014,8 20 0,0
20.09.2018 11:00:00 19,0 15,9 18,1 17,3 29 16 48 26 SSW 1015,0 18 0,0
20.09.2018 10:00:00 17,8 15,6 16,9 17,3 32 17 50 27 SW 1015,4 18 0,0
20.09.2018 09:00:00 16,9 15,6 16,2 17,3 25 14 42 23 SSW 1015,6 14 0,0
20.09.2018 08:00:00 16,7 15,2 16,3 17,4 25 13 39 21 SSW 1015,7 14 0,0
20.09.2018 07:00:00 16,9 15,2 16,5 17,4 23 13 42 23 SSW 1016,0 14 0,0
20.09.2018 06:00:00 16,8 15,3 16,1 17,5 24 13 44 24 SW 1016,4 14 0,0
20.09.2018 05:00:00 16,8 15,1 16,1 17,6 31 17 42 23 SW 1016,4 14 0,0
20.09.2018 04:00:00 16,6 15,1 16,2 17,7 28 15 42 23 SW 1016,7 10 0,0
20.09.2018 03:00:00 16,7 15,4 15,8 17,8 29 16 48 26 SW 1017,0 13 0,0
20.09.2018 02:00:00 16,1 15,3 15,3 17,9 28 15 41 22 SW 1017,2 10 0,0
20.09.2018 01:00:00 15,9 15,3 15,2 18,0 18 10 34 18 SSW 1017,4 10 0,0
20.09.2018 00:00:00 16,0 15,2 15,3 18,1 21 12 29 16 SSW 1017,7 9 0,0
19.09.2018 23:00:00 16,3 15,2 15,7 18,2 22 12 34 18 SW 1018,2 12 0,0
19.09.2018 22:00:00 17,1 16,0 16,3 18,3 19 10 39 21 SW 1018,0 12 0,0
19.09.2018 21:00:00 17,1 16,1 16,4 18,3 19 10 35 19 SSW 1017,9 11 0,0
19.09.2018 20:00:00 18,1 16,3 17,1 18,3 22 12 50 27 SW 1017,8 8 0,2
19.09.2018 19:00:00 19,6 14,8 20,1 18,2 36 19 52 28 WSW 1017,8 10 0,0
19.09.2018 18:00:00 20,1 15,1 20,7 18,1 35 19 55 30 SW 1017,2 19 0,0
19.09.2018 17:00:00 20,7 15,3 21,6 18,0 37 20 55 30 WSW 1017,2 20 0,0
19.09.2018 16:00:00 20,4 15,8 21,7 17,8 39 21 61 33 SW 1017,3 10 0,0
19.09.2018 15:00:00 20,6 15,6 20,7 17,7 39 21 59 32 SW 1017,1 10 0,0
19.09.2018 14:00:00 20,0 15,6 20,7 17,6 36 20 54 29 SW 1017,1 16 0,0
19.09.2018 13:00:00 20,1 15,9 20,6 17,5 39 21 61 33 SW 1017,0 19 0,0
19.09.2018 12:00:00 19,3 16,1 20,4 17,4 36 19 57 31 SW 1016,8 18 0,0
19.09.2018 11:00:00 19,1 16,0 18,8 17,4 32 17 55 30 SW 1016,4 18 0,0
19.09.2018 10:00:00 18,4 15,8 17,9 17,4 35 19 50 27 SW 1016,2 10 0,0
19.09.2018 09:00:00 17,9 15,9 17,5 17,4 32 17 52 28 SW 1015,7 17 0,0

tt = Température de l'air
td = dewpoint
tt 5cm = Température de l'air 5cm
tt -20cm = Température de l'air -20cm
ff = Vitesse du vent
fx = gusts
dd = Direction du vent
ppp = reduced air pressure
vv = visibility
rr = Quantités de précipitations

stations d'obs. à proximité